CW2840 Weather Reports


time (UTC)temp
C
wind
direction
speed
KPH
gust
KPH
rain 1hr
cm
rain 24hr
cm
rain mn
cm
humidity
%
barometer
mb
20260508213206 25 106 4.8 8.0 0.00 0.00 0.00 78 1009.8
20260508211703 25 102 3.2 8.0 0.00 0.00 0.00 77 1009.8
20260508210205 25 102 1.6 8.0 0.00 0.00 0.00 77 1009.7
20260508205353 25 79 3.2 8.0 0.00 0.00 0.00 78 1009.9
20260508203205 25 76 3.2 11.3 0.00 0.00 0.00 77 1009.9
20260508201704 25 134 0.0 11.3 0.00 0.00 0.00 76 1010.3
20260508200204 25 117 3.2 11.3 0.00 0.00 0.00 77 1010.6
20260508194704 25 65 3.2 11.3 0.00 0.00 0.00 76 1010.4
20260508193901 25 158 4.8 8.0 0.00 0.00 0.00 76 1010.8
20260508192405 25 127 3.2 8.0 0.00 0.00 0.00 77 1010.9
20260508190206 25 127 3.2 11.3 0.00 0.00 0.00 76 1011.0
20260508184703 24 145 1.6 11.3 0.00 0.00 0.00 77 1011.0
20260508183204 24 113 4.8 11.3 0.00 0.00 0.00 77 1011.1
20260508181704 23 113 0.0 8.0 0.00 0.00 0.00 80 1011.2
20260508181605 22 113 1.6 11.3 0.00 0.00 0.00 80 1011.5
20260508174704 22 144 0.0 8.0 0.00 0.00 0.00 80 1011.9
20260508173207 22 138 1.6 8.0 0.00 0.00 0.00 80 1012.4
20260508171703 22 109 4.8 11.3 0.00 0.00 0.00 80 1012.1
20260508170205 22 106 6.4 11.3 0.00 0.00 0.00 80 1012.1
20260508164703 21 106 3.2 8.0 0.00 0.00 0.00 81 1012.4
20260508163204 21 103 4.8 11.3 0.00 0.00 0.00 80 1012.6
20260508161704 21 103 4.8 8.0 0.00 0.00 0.00 80 1012.7
20260508160205 21 32 4.8 11.3 0.00 0.00 0.00 81 1012.6
20260508154704 20 80 6.4 14.5 0.00 0.00 0.00 81 1013.0
20260508153205 20 90 3.2 14.5 0.00 0.00 0.00 82 1013.4
20260508151704 20 351 6.4 20.9 0.00 0.00 0.00 83 1013.6
20260508150902 19 345 3.2 17.7 0.00 0.00 0.00 83 1013.6
20260508144704 19 358 3.2 17.7 0.00 0.00 0.00 84 1013.7
20260508143210 19 0 4.8 17.7 0.00 0.00 0.00 84 1014.0
20260508141704 19 1 4.8 20.9 0.00 0.00 0.00 83 1013.9
20260508140207 19 0 4.8 14.5 0.00 0.00 0.00 84 1014.1
20260508134703 19 358 3.2 11.3 0.00 0.00 0.00 83 1013.8
20260508133205 19 0 4.8 11.3 0.00 0.00 0.00 84 1013.4
20260508132402 19 34 3.2 4.8 0.00 0.00 0.00 84 1013.4
20260508130205 18 31 1.6 8.0 0.00 0.00 0.00 83 1013.2
20260508124704 18 30 3.2 4.8 0.00 0.00 0.00 84 1012.7
20260508123206 18 30 3.2 14.5 0.00 0.00 0.00 83 1013.3
20260508122404 18 171 4.8 8.0 0.00 0.00 0.00 82 1013.4
20260508120912 18 118 3.2 4.8 0.00 0.00 0.00 81 1013.7
20260508115355 19 117 0.0 4.8 0.00 0.00 0.00 79 1013.5
20260508113205 19 117 0.0 8.0 0.00 0.00 0.00 78 1013.8
20260508111702 19 69 8.0 14.5 0.00 0.00 0.00 78 1013.3
20260508110205 19 357 1.6 22.5 0.00 0.00 0.00 79 1012.9
20260508104703 19 4 3.2 14.5 0.00 0.00 0.00 78 1012.8
20260508103205 19 20 4.8 11.3 0.00 0.00 0.00 78 1013.4
20260508103102 20 6 8.0 11.3 0.00 0.00 0.00 78 1013.6
20260508100205 20 69 4.8 8.0 0.00 0.00 0.00 79 1012.7
20260508094703 20 79 3.2 4.8 0.00 0.00 0.00 78 1013.0
20260508093206 19 79 0.0 8.0 0.00 0.00 0.00 79 1013.2
20260508091703 20 85 3.2 4.8 0.00 0.00 0.00 79 1012.7
20260508090206 20 85 1.6 8.0 0.00 0.00 0.00 78 1012.9
20260508084703 20 89 1.6 8.0 0.00 0.00 0.00 78 1013.1
20260508083902 20 48 0.0 8.0 0.00 0.00 0.00 77 1013.2
20260508081704 20 61 0.0 4.8 0.00 0.00 0.00 77 1012.9
20260508080205 20 62 3.2 8.0 0.00 0.00 0.00 77 1012.9
20260508074702 20 14 1.6 4.8 0.00 0.00 0.00 76 1013.5
20260508073203 19 11 0.0 14.5 0.00 0.00 0.00 76 1013.9
20260508071702 19 350 3.2 11.3 0.00 0.00 0.00 76 1013.7
20260508070203 19 0 3.2 11.3 0.00 0.00 0.00 75 1013.5
20260508065408 19 24 1.6 11.3 0.00 0.00 0.00 76 1013.8
20260508063205 19 10 3.2 11.3 0.00 0.00 0.00 76 1014.1
20260508062405 19 14 1.6 4.8 0.00 0.00 0.00 76 1013.6
20260508060204 19 14 0.0 11.3 0.00 0.00 0.00 76 1013.6
20260508054702 20 32 0.0 11.3 0.00 0.00 0.00 75 1014.1
20260508053204 20 73 3.2 4.8 0.00 0.00 0.00 75 1013.3
20260508051702 20 73 0.0 4.8 0.00 0.00 0.00 74 1013.7
20260508050203 20 82 3.2 4.8 0.00 0.00 0.00 74 1013.5
20260508045405 20 82 3.2 8.0 0.00 0.00 0.00 74 1013.5
20260508043204 20 66 1.6 8.0 0.00 0.00 0.00 74 1013.9
20260508041702 20 351 3.2 11.3 0.00 0.00 0.00 73 1013.8
20260508040204 20 55 3.2 11.3 0.00 0.00 0.00 72 1013.9
20260508035356 20 0 1.6 8.0 0.00 0.00 0.00 72 1013.6
20260508033204 20 3 3.2 11.3 0.00 0.00 0.00 71 1013.7
20260508031703 20 20 3.2 8.0 0.00 0.00 0.00 70 1013.9
20260508030204 20 357 3.2 14.5 0.00 0.00 0.00 69 1014.4
20260508024702 21 0 3.2 14.5 0.00 0.00 0.00 68 1014.5
20260508023909 21 0 8.0 25.7 0.00 0.00 0.00 68 1014.2
20260508022432 21 334 4.8 22.5 0.00 0.00 0.00 67 1014.0
20260508020204 21 0 8.0 17.7 0.00 0.00 0.00 67 1014.2
20260508014702 21 21 1.6 8.0 0.00 0.00 0.00 67 1014.1
20260508013203 21 21 0.0 11.3 0.00 0.00 0.00 67 1013.9
20260508011702 22 8 4.8 14.5 0.00 0.00 0.00 68 1013.9
20260508010205 22 0 0.0 8.0 0.00 0.00 0.00 66 1013.6
20260508004703 22 355 3.2 8.0 0.00 0.00 0.00 66 1013.5
20260508003204 22 358 3.2 14.5 0.00 0.00 0.00 64 1013.9
20260508003057 23 0 3.2 17.7 0.00 0.00 0.00 64 1014.0
20260508000204 23 347 1.6 20.9 0.00 0.00 0.00 63 1013.9
20260507234702 23 4 9.7 20.9 0.00 0.00 0.00 62 1014.1
20260507233911 24 0 4.8 17.7 0.00 0.00 0.00 64 1013.9
20260507231702 23 354 8.0 20.9 0.00 0.00 0.00 64 1013.8
20260507230204 23 338 6.4 20.9 0.00 0.00 0.00 64 1013.8
20260507224703 24 0 8.0 22.5 0.00 0.00 0.00 64 1013.5
20260507223900 24 42 4.8 14.5 0.00 0.00 0.00 64 1013.4
20260507221702 24 16 3.2 17.7 0.00 0.00 0.00 64 1013.5
20260507220206 24 8 11.3 20.9 0.00 0.00 0.00 62 1013.7
20260507215354 24 1 3.2 22.5 0.00 0.00 0.00 63 1013.8